Regional Weather Roundup
Issued by NWS Mobile, AL

Home | Current Version | Previous Version | Text Only | Print | Product List | Glossary On
Versions: 1 2 3 4 5 6 7 8 9 10 11 12 13 14 15 16 17 18 19 20 21 22 23 24 25 26 27 28
000
ASUS44 KMOB 231412
RWRMOB
REGIONAL WEATHER ROUNDUP
NATIONAL WEATHER SERVICE MOBILE AL
800 AM CST THU FEB 23 2017

NOTE: "FAIR" INDICATES FEW OR NO CLOUDS BELOW 12,000 FEET WITH NO
      SIGNIFICANT WEATHER AND/OR OBSTRUCTIONS TO VISIBILITY.

  * THESE STATIONS ARE PART OF THE UNIVERSITY OF SOUTH ALABAMA
    MESONET AND ARE NOT UNDER NWS OR FAA QUALITY CONTROL.

ALZ061>064-231500-
COASTAL ALABAMA

CITY           SKY/WX    TMP DP  RH WIND       PRES   REMARKS
MOBILE REG APT PTSUNNY   61  59  93 NE5       29.85R FOG
BROOKLEY FIELD MOSUNNY   63  61  93 NE3       29.85R
USA CAMPUS*    NOT AVBL
DOG RIVER*     NOT AVBL


CITY           SKY/WX    TMP DP  RH WIND       PRES   REMARKS
GULF SHORES    FOG       58  58 100 E3        29.84R VSB 1/4

$$

ALZ051>060-231500-
INTERIOR SOUTHWEST AND SOUTH CENTRAL ALABAMA

CITY           SKY/WX    TMP DP  RH WIND       PRES   REMARKS
GREENVILLE     CLOUDY    63  59  87 E7        29.86R
EVERGREEN      CLOUDY    61  59  93 E5        29.86R
ATMORE*        NOT AVBL
ANDALUSIA/OPP  CLOUDY    65  60  84 E6        29.86R
ANDALUSIA*     NOT AVBL
FLORALA APT    CLOUDY    62  59  90 NE8       29.87R
FLORALA*       NOT AVBL

$$

FLZ001>006-231500-
WESTERN FLORIDA PANHANDLE

CITY           SKY/WX    TMP DP  RH WIND       PRES   REMARKS
PENSACOLA      CLOUDY    62  59  90 NE6       29.84R
NAS PENSACOLA  CLOUDY    62  60  93 E8        29.83R FOG
MILTON         CLOUDY    60  59  96 E8        29.85R
WHTNG S FIELD  CLOUDY    64  60  87 E9        29.85R


CITY           SKY/WX    TMP DP  RH WIND       PRES   REMARKS
JAY*           NOT AVBL
DUKE FIELD     PTSUNNY   63  60  89 NE5       29.83R
CRESTVIEW      CLOUDY    64  60  87 NE5       29.86R
VALPARAISO     MOSUNNY   64  59  82 N6        29.83R
DESTIN         SUNNY     66  66 100 N7        29.83R

$$

MSZ076-079-231500-
INTERIOR SOUTHEAST MISSISSIPPI

CITY           SKY/WX    TMP DP  RH WIND       PRES   REMARKS
LEAKESVILLE*   NOT AVBL
AGRICOLA*      NOT AVBL

$$

MARINE OBSERVATIONS

STATION/POSITION TIME  TEMP    WIND        PRES    WAVE
                       AIR SEA DIR/SP/G            HT/PER
                 (UTC) (F)     (DEG/KT/KT) (MB)    (FT/S)
PASCAGOULA       1348   62      50/  4/  7 1009.9R
PETIT BOIS ISLND 1348   64      50/  8/ 10 1010.7R
GRAND BAY        1245   58     350/  4     1010.0S
KATRINA CUT      1330           70/ 11     1009.5S
CEDAR POINT      1330   63      80/  8     1009.8R
E DAUPHIN ISLAND 1300   63      70/ 10/ 11 1009.2R
MIDDLE BAY LIGHT 1330   63      60/  9     1009.5S
USCG MOBILE BAY  1348   61 64   10/  3/  3 1011.0R
STATE DOCKS      1348   60 62              1010.3R
MEAHER PARK      1330   59     340/  3     1010.5R
WEEKS BAY        1245   56                   N/A
FORT MORGAN      1348   63      80/ 11/ 12   N/A
12 S ORANGE BCH  1350   63 68   80/ 12/ 14 1010.0R   2/ 3
PENSACOLA BAY    1348   61 66   30/  4/  8 1010.5R
67 S FORT MORGAN 1330   69      40/ 12     1009.1R

$$

SELECTED LOCATIONS ACROSS THE REGION

CITY           SKY/WX    TMP DP  RH WIND       PRES   REMARKS
NEW ORLEANS    SUNNY     64  61  90 CALM      29.84R
GULFPORT       SUNNY     63  60  90 E5        29.83R
PASCAGOULA AP  SUNNY     61  57  87 NE6       29.84R
PASCAGOULA*    NOT AVBL
HATTIESBURG    FOG       53  52  96 CALM      29.86R VSB 1/4
LAUREL         CLOUDY    54  50  87 CALM      29.87R VSB 1/4
MERIDIAN       FOG       56  56 100 CALM      29.86R VSB 3/4
JACKSON        MOSUNNY   56  54  93 CALM      29.83R
MONTGOMERY     CLOUDY    65  58  78 E3        29.87R
TROY           CLOUDY    63  61  93 NE6       29.88R
ASHFORD*       NOT AVBL
DOTHAN         CLOUDY    63  62  97 NE8       29.88S
PANAMA CITY    CLOUDY    63  61  93 N12       29.81S

$$





USA.gov is the U.S. government's official web portal to all federal, state and local government web resources and services.